Theta_e
313 314 313 314 314 314 314 314 310 308 310 313 315 326 333 334 334 334 332 330 328 324 323 323 324 324 324 324 323 323 322 320 318 316 315 314 314 314
313 312 312 312 313 313 313 313 313 311 309 311 314 318 329 334 335 333 330 329 327 323 322 321 321 321 321 320 319 319 318 317 315 314 313 312 311 311
311 312 310 310 310 310 311 311 311 311 309 313 315 317 321 331 333 332 330 328 326 323 323 321 318 318 318 318 317 317 316 314 313 312 311 310 309 308
311 313 312 314 310 308 308 308 309 310 310 310 313 314 320 324 330 328 327 327 325 323 321 319 317 316 315 315 314 313 312 311 310 309 309 309 308 307
311 313 312 312 311 311 311 308 309 311 310 309 310 314 319 326 325 325 324 323 323 323 318 317 316 315 314 313 311 310 308 306 306 306 306 306 305 306
312 313 313 313 312 311 310 311 310 307 307 307 308 311 314 320 324 320 316 318 317 319 318 316 315 315 313 312 310 309 305 304 303 303 302 302 303 303
311 313 314 315 316 314 312 312 312 309 307 306 306 307 310 317 319 319 315 314 314 313 312 311 311 311 310 311 310 308 304 302 301 300 300 299 300 301
307 309 311 313 313 313 313 313 312 310 309 307 304 304 306 309 319 317 313 310 306 312 309 307 310 307 309 308 309 305 303 301 300 300 299 299 300 301
306 306 306 308 310 310 311 311 311 310 310 310 307 305 305 308 318 316 313 312 309 309 310 305 308 306 308 308 306 304 302 301 300 299 299 299 300 300
305 305 305 305 306 306 306 307 309 310 311 311 310 309 308 308 315 319 315 314 308 310 310 302 306 305 308 307 305 303 301 300 299 298 299 299 298 297
304 305 305 304 303 301 305 305 306 307 309 307 307 306 304 302 308 315 313 310 304 305 309 305 304 303 303 302 303 302 300 299 298 299 299 299 297 297
303 305 304 304 301 299 303 304 304 306 308 309 309 305 305 305 305 313 315 311 308 303 309 305 305 303 299 301 301 300 298 299 298 298 299 298 297 293
297 298 299 299 299 297 298 304 304 306 307 308 309 309 309 308 306 309 314 314 310 306 309 308 306 305 302 299 299 298 296 295 293 296 299 298 298 297
296 298 299 297 296 296 297 298 298 301 306 306 306 307 307 308 308 308 313 316 317 315 311 312 307 306 300 297 296 297 295 293 293 293 292 296 298 297
298 298 297 295 295 296 296 296 297 299 300 301 302 304 307 309 311 311 314 317 317 313 312 313 311 308 303 299 296 296 293 292 294 294 294 294 293 294
297 296 296 296 295 296 297 297 297 298 298 299 300 305 308 309 311 313 312 314 312 309 311 314 312 308 303 300 298 295 296 292 295 296 296 295 296 297
294 293 293 293 293 294 295 296 297 297 297 299 302 305 305 308 312 314 314 313 310 307 307 311 312 309 305 301 298 297 297 295 296 297 297 296 296 300
291 292 292 294 294 296 297 297 296 297 297 299 301 304 304 308 312 313 314 312 310 308 308 310 307 305 303 305 304 299 300 297 298 299 299 298 295 294
294 296 297 298 298 300 301 302 296 297 299 300 302 304 305 311 310 312 312 312 310 309 309 310 307 305 300 298 303 304 301 302 301 299 300 294 290 291
298 297 297 298 299 299 301 299 297 298 298 300 301 304 306 312 312 313 312 311 309 309 308 309 308 307 304 302 301 303 300 303 301 299 292 289 288 292
298 298 298 298 299 300 300 299 298 298 299 301 304 305 308 314 313 313 312 304 304 309 307 307 309 299 310 309 303 301 303 301 305 295 290 289 285 285
298 298 298 298 300 300 300 299 300 300 302 305 305 308 313 315 314 313 312 307 309 309 309 310 309 310 308 305 302 302 303 297 297 297 297 294 290 285
298 298 297 297 302 302 303 303 303 304 306 307 308 309 315 315 315 314 311 310 309 308 308 308 310 310 307 305 302 301 294 294 294 293 289 295 296 295
Wind_Speed
5 5 4 4 4 4 4 4 4 8 9 5 4 7 5 4 8 12 11 18 17 17 15 14 12 10 8 10 12 12 12 9 8 6 5 4 3 4
4 5 4 3 4 4 3 3 4 4 7 2 5 5 7 2 10 8 8 16 19 17 16 14 12 11 12 12 13 12 13 9 9 6 6 4 3 3
6 5 7 6 6 4 4 4 5 4 8 7 5 4 9 3 6 6 7 9 9 18 17 15 13 13 14 12 14 12 13 8 7 7 6 5 4 2
7 8 13 9 7 5 4 6 5 5 4 8 4 5 4 2 5 6 6 7 8 16 17 16 14 14 13 12 13 12 10 8 8 8 6 7 5 4
7 11 11 10 10 9 9 6 7 6 5 3 4 4 3 2 2 1 6 6 5 13 16 16 15 14 14 11 13 13 11 10 8 8 7 8 6 4
9 11 11 11 12 11 10 11 8 6 5 5 4 4 3 4 4 5 3 2 7 7 10 10 13 13 13 11 13 15 12 10 9 10 8 9 7 6
11 10 12 15 19 17 10 11 9 8 6 6 5 4 3 2 5 4 4 5 3 2 7 6 7 6 6 10 12 17 13 12 10 10 9 8 8 7
12 11 11 16 18 20 22 23 17 12 11 7 4 4 5 2 4 7 6 7 4 3 7 4 5 5 6 5 12 15 13 13 12 12 10 10 10 8
12 13 13 12 17 16 17 18 21 23 21 15 14 10 8 5 4 10 11 9 7 8 8 6 7 5 5 6 14 16 14 13 13 12 11 10 9 9
15 15 16 16 15 16 16 18 16 14 16 14 17 16 14 7 5 9 14 10 5 7 5 4 6 5 5 5 18 17 15 13 14 13 12 10 11 11
15 15 15 16 19 19 17 18 18 18 16 19 20 19 17 15 11 5 7 10 5 5 8 4 5 4 3 4 7 17 16 14 14 12 10 11 12 12
13 14 18 20 22 17 16 17 19 18 15 13 11 15 20 16 18 14 8 10 6 5 7 5 10 6 4 3 6 7 7 13 13 12 11 13 13 6
11 12 12 19 19 18 21 17 21 17 17 15 13 11 12 14 11 13 14 11 10 3 11 7 10 7 3 6 4 5 7 7 4 7 10 12 11 6
15 14 15 22 22 23 18 24 24 18 10 11 12 12 13 13 12 12 16 15 13 11 15 14 9 12 7 5 5 7 6 5 5 7 4 6 8 6
13 19 26 27 28 25 30 30 26 14 15 14 13 14 14 13 11 13 16 18 14 7 15 17 9 12 9 8 8 8 8 5 6 7 5 5 4 4
19 16 20 24 28 26 22 18 15 15 16 15 14 14 12 12 12 13 14 13 10 7 14 15 9 14 8 8 10 10 7 7 9 8 7 5 4 4
20 15 14 13 14 13 12 13 13 13 16 14 13 14 12 12 13 15 14 13 11 10 10 7 10 7 6 12 8 10 9 5 9 10 7 6 4 4
13 13 13 12 13 13 12 12 12 17 15 14 14 12 13 13 13 14 12 13 13 11 11 9 12 10 8 3 11 12 8 8 9 11 7 7 4 3
9 11 12 13 13 13 13 11 13 15 16 14 14 15 13 12 15 15 14 13 12 12 13 12 14 13 12 8 5 13 13 11 11 9 7 4 4 4
10 11 12 12 12 13 12 10 11 12 14 14 15 14 14 12 15 15 15 15 14 12 11 13 14 14 14 10 7 10 13 14 12 9 5 5 8 13
13 13 12 12 13 12 7 8 10 12 14 14 15 15 15 13 16 14 14 15 14 12 14 13 12 11 7 9 10 7 9 14 14 12 10 9 4 4
14 14 13 12 13 2 5 7 8 11 13 13 13 14 10 15 14 16 14 15 14 12 11 10 10 10 9 11 12 14 9 4 17 20 10 7 9 7
15 15 13 12 8 4 4 8 9 10 10 12 13 11 10 13 12 13 13 14 14 12 12 11 10 10 9 11 13 12 11 13 10 9 5 13 6 12
Wind_Direction
265 274 271 261 266 263 268 266 247 302 299 303 305 321 317 145 164 180 188 183 182 168 166 174 169 161 178 124 116 115 110 124 133 122 119 109 73 64
241 273 292 295 296 295 294 294 291 285 295 296 292 299 313 148 180 184 187 177 173 169 170 162 156 151 139 134 128 122 118 128 125 134 127 127 104 80
245 247 264 270 274 268 284 282 277 276 284 295 293 296 322 163 177 175 172 179 183 171 165 155 148 140 140 142 133 134 120 131 149 139 137 140 118 114
265 270 277 277 276 254 246 265 263 285 282 288 293 302 280 197 189 177 171 177 174 173 157 145 141 141 142 147 135 126 128 171 152 129 133 119 115 107
257 272 267 255 256 263 267 251 262 266 264 275 285 290 268 246 115 130 168 155 157 156 134 136 137 142 140 155 141 129 127 131 124 112 120 115 106 107
259 261 254 251 250 258 260 255 246 247 247 252 263 264 257 260 168 144 139 142 138 143 140 139 140 142 143 154 142 130 126 135 122 113 111 100 95 117
268 262 250 251 253 249 250 248 250 241 248 255 254 245 257 224 188 154 165 139 119 128 135 136 135 134 141 149 151 141 145 138 134 131 123 116 130 141
276 275 270 269 262 255 250 241 242 248 251 246 238 237 247 257 205 173 155 146 164 182 140 135 144 146 139 154 158 143 149 146 144 140 144 141 142 141
269 264 263 263 265 263 257 240 238 237 237 250 252 237 249 210 225 182 177 188 175 170 155 160 152 151 169 167 154 150 151 148 147 148 150 147 134 118
263 261 262 264 256 258 261 260 245 238 234 235 239 246 244 222 231 223 189 166 91 154 162 147 151 157 167 158 161 156 150 153 149 156 154 137 125 135
266 259 256 254 249 239 244 248 253 251 238 220 221 231 233 211 207 226 200 178 136 177 190 111 157 104 100 136 160 156 150 156 157 160 152 138 130 117
271 265 250 244 251 234 235 242 248 245 233 235 227 225 225 227 205 212 211 190 156 142 184 130 154 138 137 144 155 156 148 161 160 155 157 150 135 119
281 279 269 265 258 247 233 239 243 248 241 228 222 219 218 218 212 212 208 204 181 174 172 141 169 154 116 136 137 158 156 153 151 155 171 168 162 129
277 271 267 265 263 259 251 246 244 241 236 216 213 214 219 212 204 199 203 204 203 207 173 177 167 178 137 138 150 156 158 155 158 161 160 182 196 195
265 268 271 268 263 260 253 249 241 227 230 230 226 227 214 213 195 191 197 198 199 173 172 189 178 169 160 147 141 159 145 183 170 165 166 178 177 181
280 274 268 264 259 257 258 245 230 222 218 220 217 214 199 201 204 184 191 182 174 161 179 185 166 156 154 134 138 144 157 168 171 171 172 176 196 204
284 279 273 265 263 257 247 238 222 210 210 210 210 197 190 199 205 181 178 173 171 161 158 162 149 137 135 138 127 152 159 137 167 164 164 176 196 174
282 274 269 263 256 255 247 233 210 205 202 199 197 196 187 206 190 173 171 170 166 163 161 157 144 127 124 63 145 153 164 149 162 168 166 157 123 71
265 274 276 276 273 266 259 240 203 198 190 191 189 186 185 202 174 167 169 164 164 163 164 157 158 158 161 152 148 189 161 158 156 162 153 128 126 137
292 290 288 284 277 270 263 206 191 184 184 185 185 184 185 196 167 168 167 164 162 158 161 166 170 173 171 162 149 176 182 156 161 147 114 81 73 100
310 306 302 296 287 271 212 188 181 178 179 177 177 178 183 183 168 165 163 159 156 158 165 172 175 159 122 108 118 155 159 166 163 142 142 128 124 144
319 317 316 308 304 150 151 166 173 167 174 169 169 169 192 159 163 164 160 155 160 159 163 157 149 148 148 151 149 143 144 68 110 124 75 135 159 162
324 325 325 321 318 162 191 152 160 155 157 161 163 168 173 147 153 151 147 155 156 155 153 151 159 157 152 147 144 141 126 127 139 123 42 356 178 122